Location: G�ndlingen
(48.0142°N, 7.6396°E)
Time: 08:35:32
(UTC+00:00)

Cosmos 2237 Rocket - Pass Details

Date: 05 July 2020
Orbit: 834 x 850 km, 71.0° (Epoch: 05 August)

Event Time Altitude Azimuth Distance (km) Brightness Sun altitude
Exits shadow 20:33:09 - 123° (ESE) 2,529 4.1 -8.5°
Reaches altitude 10° 20:33:30 10° 120° (ESE) 2,473 4.0 -8.5°
Maximum altitude 20:35:47 13° 96° (E) 2,298 4.0 -8.8°
Drops below altitude 10° 20:38:04 10° 71° (ENE) 2,482 4.4 -9.0°
Sets 20:42:03 0° 44° (NE) 3,425 5.4 -9.5°
